Location: Caltech
(34.1382°N, 118.1253°W)
Time: 16:53:13
(UTC-07:00)

AO-Echo - Visible Passes

Search period start: 31 March 2015 00:00
Search period end: 10 April 2015 00:00
Orbit: 694 x 812 km, 98.3° (Epoch: 30 March)

Date Brightness Start Highest point End Pass type
(mag) Time Alt. Az. Time Alt. Az. Time Alt. Az.
04 Apr ? 03:02:20 10° N 03:02:33 11° N 03:02:33 11° N visible
06 Apr ? 03:20:45 10° N 03:21:09 12° N 03:21:09 12° N visible
07 Apr ? 02:40:15 10° NNE 02:40:29 11° NNE 02:40:29 11° NNE visible
08 Apr ? 03:39:22 10° NNW 03:39:45 12° NNW 03:39:45 12° NNW visible
09 Apr ? 02:58:27 10° N 02:59:04 14° N 02:59:04 14° N visible
